EW9837 Weather Reports


Display with metric or nautical units.
time (UTC)temp
F
wind
direction
speed
MPH
gust
MPH
rain 1hr
in
rain 24hr
in
rain mn
in
humidity
%
barometer
mb
20210618174544 80 67 1.0 0.0 0.00 0.00 0.00 43 1019.1
20210618173049 80 42 2.0 0.0 0.00 0.00 0.00 43 1019.1
20210618171540 79 56 2.0 0.0 0.00 0.00 0.00 44 1019.5
20210618170038 76 74 1.0 0.0 0.00 0.00 0.00 46 1019.5
20210618164540 77 359 3.0 0.0 0.00 0.00 0.00 45 1019.5
20210618163048 76 15 1.0 0.0 0.00 0.00 0.00 45 1019.5
20210618161538 74 8 1.0 0.0 0.00 0.00 0.00 46 1019.9
20210618160037 73 17 1.0 0.0 0.00 0.00 0.00 48 1019.9
20210618154536 75 355 2.0 0.0 0.00 0.00 0.00 45 1019.9
20210618153109 76 18 0.0 0.0 0.00 0.00 0.00 44 1019.9
20210618151528 75 25 1.0 0.0 0.00 0.00 0.00 45 1019.9
20210618150040 74 360 1.0 0.0 0.00 0.00 0.00 46 1019.9
20210618144539 73 54 0.0 0.0 0.00 0.00 0.00 48 1019.9
20210618143043 72 128 0.0 0.0 0.00 0.00 0.00 54 1019.9
20210618141557 68 135 0.0 0.0 0.00 0.00 0.00 67 1020.2
20210618140044 59 135 0.0 0.0 0.00 0.00 0.00 87 1020.2
20210618134538 53 153 1.0 0.0 0.00 0.00 0.00 94 1020.2
20210618133037 49 201 1.0 0.0 0.00 0.00 0.00 95 1019.9
20210618131545 47 180 3.0 0.0 0.00 0.00 0.00 95 1019.9
20210618130041 47 180 2.0 0.0 0.00 0.00 0.00 95 1019.5
20210618124538 46 180 1.0 0.0 0.00 0.00 0.00 94 1019.5
20210618123040 46 172 3.0 0.0 0.00 0.00 0.00 94 1019.5
20210618121539 47 166 3.0 0.0 0.00 0.00 0.00 93 1019.5
20210618120039 47 178 2.0 0.0 0.00 0.00 0.00 93 1019.5
20210618114531 48 159 2.0 0.0 0.00 0.00 0.00 93 1019.5
20210618113035 48 170 4.0 0.0 0.00 0.00 0.00 94 1019.5
20210618111539 48 156 4.0 0.0 0.00 0.00 0.00 93 1019.5
20210618110039 48 163 4.0 0.0 0.00 0.00 0.00 93 1019.9
20210618104537 48 155 3.0 0.0 0.00 0.00 0.00 93 1019.5
20210618103030 48 171 3.0 0.0 0.00 0.00 0.00 93 1019.9
20210618101540 48 164 3.0 0.0 0.00 0.00 0.00 92 1019.9
20210618100037 48 157 3.0 0.0 0.00 0.00 0.00 91 1019.9
20210618094539 48 160 3.0 0.0 0.00 0.00 0.00 91 1019.9
20210618093039 49 162 4.0 0.0 0.00 0.00 0.00 89 1019.9
20210618090039 49 180 3.0 0.0 0.00 0.00 0.00 88 1019.9
20210618084540 50 176 3.0 0.0 0.00 0.00 0.00 86 1019.9
20210618083038 51 160 3.0 0.0 0.00 0.00 0.00 86 1019.9
20210618081538 51 148 3.0 0.0 0.00 0.00 0.00 86 1019.9
20210618080040 51 165 4.0 0.0 0.00 0.00 0.00 85 1019.9
20210618074533 51 174 4.0 0.0 0.00 0.00 0.00 84 1019.9
20210618073029 52 175 3.0 0.0 0.00 0.00 0.00 84 1020.2
20210618071538 52 161 4.0 0.0 0.00 0.00 0.00 84 1020.2
20210618070041 52 165 4.0 0.0 0.00 0.00 0.00 82 1020.2
20210618064539 54 171 3.0 0.0 0.00 0.00 0.00 79 1020.2
20210618063046 54 215 2.0 0.0 0.00 0.00 0.00 77 1020.2
20210618061538 55 139 2.0 0.0 0.00 0.00 0.00 76 1020.2
20210618060036 56 153 3.0 0.0 0.00 0.00 0.00 74 1020.2
20210618054550 56 137 4.0 0.0 0.00 0.00 0.00 72 1020.2
20210618053040 58 187 2.0 0.0 0.00 0.00 0.00 67 1020.2
20210618051542 60 185 2.0 0.0 0.00 0.00 0.00 65 1020.2
20210618050039 61 166 4.0 0.0 0.00 0.00 0.00 61 1020.2
20210618044542 63 145 2.0 0.0 0.00 0.00 0.00 56 1019.9
20210618043058 64 87 4.0 0.0 0.00 0.00 0.00 57 1019.9
20210618040041 66 155 1.0 0.0 0.00 0.00 0.00 52 1019.5
20210618034535 69 181 2.0 0.0 0.00 0.00 0.00 46 1019.5
20210618033051 70 203 4.0 0.0 0.00 0.00 0.00 45 1019.5
20210618031533 72 222 3.0 0.0 0.00 0.00 0.00 42 1019.5
20210618030044 74 241 2.0 0.0 0.00 0.00 0.00 39 1019.5
20210618024552 76 246 1.0 0.0 0.00 0.00 0.00 36 1019.5
20210618023045 77 272 1.0 0.0 0.00 0.00 0.00 34 1019.9
20210618021547 77 289 2.0 0.0 0.00 0.00 0.00 33 1019.9
20210618020041 77 312 5.0 0.0 0.00 0.00 0.00 31 1020.2
20210618014546 78 318 5.0 0.0 0.00 0.00 0.00 31 1020.2
20210618013050 78 315 4.0 0.0 0.00 0.00 0.00 31 1020.2
20210618011535 78 318 6.0 0.0 0.00 0.00 0.00 31 1020.2
20210618010031 79 321 8.0 0.0 0.00 0.00 0.00 32 1020.2
20210618004539 80 324 7.0 0.0 0.00 0.00 0.00 32 1020.2
20210618003049 80 301 4.0 0.0 0.00 0.00 0.00 33 1020.6
20210618001537 80 332 8.0 0.0 0.00 0.00 0.00 32 1020.2
20210618000031 80 324 6.0 0.0 0.00 0.00 0.00 33 1020.2
20210617234603 80 323 7.0 0.0 0.00 0.00 0.00 34 1020.2
20210617233038 80 341 7.0 0.0 0.00 0.00 0.00 35 1020.6
20210617231545 81 330 6.0 0.0 0.00 0.00 0.00 35 1020.6
20210617230046 81 16 6.0 0.0 0.00 0.00 0.00 36 1020.6
20210617224536 81 45 6.0 0.0 0.00 0.00 0.00 40 1020.6
20210617223029 80 67 6.0 0.0 0.00 0.00 0.00 41 1020.6
20210617221537 81 62 6.0 0.0 0.00 0.00 0.00 42 1020.9
20210617220056 81 49 6.0 0.0 0.00 0.00 0.00 40 1020.9
20210617214533 81 51 7.0 0.0 0.00 0.00 0.00 40 1021.3
20210617213049 82 49 6.0 0.0 0.00 0.00 0.00 39 1021.3
20210617211535 82 44 5.0 0.0 0.00 0.00 0.00 39 1021.3
20210617210045 81 35 6.0 0.0 0.00 0.00 0.00 40 1021.6
20210617204554 80 39 6.0 0.0 0.00 0.00 0.00 39 1021.6
20210617203040 80 35 5.0 0.0 0.00 0.00 0.00 40 1022.0
20210617201540 80 48 5.0 0.0 0.00 0.00 0.00 40 1022.0
20210617200052 79 37 4.0 0.0 0.00 0.00 0.00 40 1022.3
20210617194532 78 37 5.0 0.0 0.00 0.00 0.00 42 1022.3
20210617193037 78 43 6.0 0.0 0.00 0.00 0.00 43 1022.3
20210617191546 78 55 5.0 0.0 0.00 0.00 0.00 44 1022.7
20210617190050 78 55 4.0 0.0 0.00 0.00 0.00 44 1022.7
20210617184542 77 31 5.0 0.0 0.00 0.00 0.00 44 1022.7
20210617183046 77 35 4.0 0.0 0.00 0.00 0.00 43 1022.7
20210617181548 76 1 3.0 0.0 0.00 0.00 0.00 44 1023.1
20210617180040 76 28 2.0 0.0 0.00 0.00 0.00 44 1023.1